Torna al catalogo

STARLINK-38084

AttivoComunicazioniSSO
NORAD 69995·PAYLOAD·🇺🇸 United States

Lanciato Jul 11, 2026 da Vandenberg Space Force Base

Loading…

Prossimi Passaggi (prossime 24 ore)

TLE

AggiornatoSource: CelesTrak SupGP

Epoca: Sep 15, 2026, 03:23 UTC

1 69995C 26159W   26258.14145833 -.01906100  00000+0 -34583-1 0  2583
2 69995  97.2850  99.8707 0001644 101.8954 311.8727 15.50598768    18

Traccia STARLINK-38084 in tempo reale con AllMySat

Download on the App Store